timestamp,surface_pressure_avg,surface_temp_avg,battery_voltage,lat,long
2018-03-01 00:00:00+00:00,334.9597,0.4,12.81,47.84626,-54.09684
2018-03-01 00:10:00+00:00,328.6063,0.4,12.81,47.84626,-54.09684
2018-03-01 00:20:00+00:00,327.1946,0.4,12.89,47.84626,-54.09684
2018-03-01 00:30:00+00:00,325.1463,0.4,12.89,47.84626,-54.09684
2018-03-01 00:40:00+00:00,318.2113,0.4,12.89,47.84626,-54.09684
2018-03-01 00:50:00+00:00,308.513,0.4,12.89,47.84626,-54.09684
2018-03-01 01:00:00+00:00,304.7396,0.4,12.81,47.84626,-54.09684
2018-03-01 01:10:00+00:00,294.618,0.4,12.81,47.84626,-54.09684
2018-03-01 01:20:00+00:00,283.8897,0.4,12.89,47.84626,-54.09684
2018-03-01 01:30:00+00:00,274.063,0.4,12.81,47.84626,-54.09684
2018-03-01 01:40:00+00:00,266.5131,0.4,12.89,47.84626,-54.09684
2018-03-01 01:50:00+00:00,257.8714,0.4,12.89,47.84626,-54.09684
2018-03-01 02:00:00+00:00,247.5247,0.39,12.81,47.84626,-54.09684
2018-03-01 02:10:00+00:00,237.3064,0.39,12.73,47.84626,-54.09684
2018-03-01 02:20:00+00:00,232.2031,0.38,12.81,47.84626,-54.09684
2018-03-01 02:30:00+00:00,225.5914,0.39,12.81,47.84626,-54.09684
2018-03-01 02:40:00+00:00,215.2514,0.38,12.81,47.84626,-54.09684
2018-03-01 02:50:00+00:00,205.7664,0.39,12.89,47.84626,-54.09684
2018-03-01 03:00:00+00:00,204.6148,0.38,12.81,47.84626,-54.09684
2018-03-01 03:10:00+00:00,203.0215,0.38,12.73,47.84626,-54.09684
2018-03-01 03:20:00+00:00,192.9748,0.38,12.81,47.84626,-54.09684
2018-03-01 03:30:00+00:00,187.1964,0.37,12.81,47.84626,-54.09684
2018-03-01 03:40:00+00:00,192.8315,0.38,12.81,47.84626,-54.09684
2018-03-01 03:50:00+00:00,191.8748,0.38,12.81,47.84626,-54.09684
2018-03-01 04:00:00+00:00,181.9215,0.39,12.81,47.84626,-54.09684
2018-03-01 04:10:00+00:00,185.7548,0.38,12.73,47.84626,-54.09684
2018-03-01 04:20:00+00:00,191.7898,0.38,12.81,47.84626,-54.09684
2018-03-01 04:30:00+00:00,183.7365,0.39,12.81,47.84626,-54.09684
2018-03-01 04:40:00+00:00,179.5598,0.4,12.81,47.84626,-54.09684
2018-03-01 04:50:00+00:00,187.7398,0.4,12.81,47.84626,-54.09684
2018-03-01 05:00:00+00:00,188.6431,0.4,12.81,47.84626,-54.09684
2018-03-01 05:10:00+00:00,181.1082,0.4,12.73,47.84626,-54.09684
2018-03-01 05:20:00+00:00,181.6231,0.39,12.81,47.84626,-54.09684
2018-03-01 05:30:00+00:00,187.7598,0.38,12.81,47.84626,-54.09684
2018-03-01 05:40:00+00:00,188.9982,0.38,12.81,47.84626,-54.09684
2018-03-01 05:50:00+00:00,190.2298,0.39,12.81,47.84626,-54.09684
2018-03-01 06:00:00+00:00,196.0832,0.39,12.73,47.84626,-54.09684
2018-03-01 06:10:00+00:00,199.2331,0.37,12.73,47.84626,-54.09684
2018-03-01 06:20:00+00:00,200.2098,0.38,12.81,47.84626,-54.09684
2018-03-01 06:30:00+00:00,206.4648,0.4,12.81,47.84626,-54.09684
2018-03-01 06:40:00+00:00,214.7914,0.4,12.81,47.84626,-54.09684
2018-03-01 06:50:00+00:00,218.2465,0.4,12.81,47.84626,-54.09684
2018-03-01 07:00:00+00:00,222.3181,0.4,12.73,47.84626,-54.09684
2018-03-01 07:10:00+00:00,230.5831,0.4,12.73,47.84626,-54.09684
2018-03-01 07:20:00+00:00,237.4864,0.4,12.81,47.84626,-54.09684
2018-03-01 07:30:00+00:00,243.7548,0.4,12.81,47.84626,-54.09684
2018-03-01 07:40:00+00:00,249.4781,0.4,12.81,47.84626,-54.09684
2018-03-01 07:50:00+00:00,258.5597,0.4,12.81,47.84626,-54.09684
2018-03-01 08:00:00+00:00,265.8764,0.4,12.73,47.84626,-54.09684
2018-03-01 08:10:00+00:00,274.3264,0.4,12.73,47.84626,-54.09684
2018-03-01 08:20:00+00:00,283.5681,0.4,12.81,47.84626,-54.09684
2018-03-01 08:30:00+00:00,294.3181,0.4,12.81,47.84626,-54.09684
2018-03-01 08:40:00+00:00,301.2364,0.42,12.81,47.84626,-54.09684
2018-03-01 08:50:00+00:00,309.9413,0.4,12.81,47.84626,-54.09684
2018-03-01 09:00:00+00:00,319.023,0.4,12.73,47.84626,-54.09684
2018-03-01 09:10:00+00:00,329.708,0.4,12.73,47.84626,-54.09684
2018-03-01 09:20:00+00:00,339.9163,0.4,12.81,47.84626,-54.09684
2018-03-01 09:30:00+00:00,344.3929,0.42,12.81,47.84626,-54.09684
2018-03-01 09:40:00+00:00,349.633,0.4,12.81,47.84626,-54.09684
2018-03-01 09:50:00+00:00,359.763,0.4,12.81,47.84626,-54.09684
2018-03-01 10:00:00+00:00,366.8896,0.4,12.73,47.84626,-54.09684
2018-03-01 10:10:00+00:00,368.9514,0.42,12.73,47.84626,-54.09684
2018-03-01 10:20:00+00:00,373.3746,0.4,12.81,47.84626,-54.09684
2018-03-01 10:30:00+00:00,382.7497,0.43,12.81,47.84626,-54.09684
2018-03-01 10:40:00+00:00,382.3362,0.46,12.81,47.84626,-54.09684
2018-03-01 10:50:00+00:00,381.1613,0.4,12.81,47.84626,-54.09684
2018-03-01 11:00:00+00:00,386.8079,0.42,12.73,47.84626,-54.09684
2018-03-01 11:10:00+00:00,387.6146,0.45,12.73,47.84626,-54.09684
2018-03-01 11:20:00+00:00,389.9379,0.45,12.81,47.84626,-54.09684
2018-03-01 11:30:00+00:00,386.1929,0.46,12.89,47.84626,-54.09684
2018-03-01 11:40:00+00:00,382.208,0.46,12.89,47.84626,-54.09684
2018-03-01 11:50:00+00:00,381.8679,0.45,12.89,47.84626,-54.09684
2018-03-01 12:00:00+00:00,379.9195,0.46,12.81,47.84626,-54.09684
2018-03-01 12:10:00+00:00,376.8279,0.46,12.81,47.84626,-54.09684
2018-03-01 12:20:00+00:00,371.9612,0.47,12.89,47.84626,-54.09684
2018-03-01 12:30:00+00:00,367.073,0.48,12.89,47.84626,-54.09684
2018-03-01 12:40:00+00:00,362.358,0.5,12.97,47.84626,-54.09684
2018-03-01 12:50:00+00:00,358.6912,0.49,12.97,47.84626,-54.09684
2018-03-01 13:00:00+00:00,354.9579,0.49,12.97,47.84626,-54.09684
2018-03-01 13:10:00+00:00,348.6096,0.5,12.89,47.84626,-54.09684
2018-03-01 13:20:00+00:00,342.0463,0.5,13.05,47.84626,-54.09684
2018-03-01 13:30:00+00:00,336.6863,0.5,13.05,47.84626,-54.09684
2018-03-01 13:40:00+00:00,325.4596,0.5,13.13,47.84626,-54.09684
2018-03-01 13:50:00+00:00,315.5013,0.49,13.21,47.84626,-54.09684
2018-03-01 14:00:00+00:00,304.7064,0.5,13.21,47.84626,-54.09684
2018-03-01 14:10:00+00:00,296.1314,0.5,13.21,47.84626,-54.09684
2018-03-01 14:20:00+00:00,283.1997,0.5,13.29,47.84626,-54.09684
2018-03-01 14:30:00+00:00,272.4464,0.5,13.37,47.84626,-54.09684
2018-03-01 14:40:00+00:00,264.743,0.5,13.53,47.84626,-54.09684
2018-03-01 14:50:00+00:00,255.6748,0.5,13.68,47.84626,-54.09684
2018-03-01 15:00:00+00:00,244.1897,0.52,13.6,47.84626,-54.09684
2018-03-01 15:10:00+00:00,231.5931,0.57,13.53,47.84626,-54.09684
2018-03-01 15:20:00+00:00,221.8981,0.5,13.92,47.84626,-54.09684
2018-03-01 15:30:00+00:00,213.0314,0.5,13.92,47.84626,-54.09684
2018-03-01 15:40:00+00:00,204.8264,0.55,13.84,47.84626,-54.09684
2018-03-01 15:50:00+00:00,197.8814,0.6,13.68,47.84626,-54.09684
2018-03-01 16:00:00+00:00,190.8181,0.68,13.6,47.84626,-54.09684
2018-03-01 16:10:00+00:00,185.5031,0.6,13.44,47.84626,-54.09684
2018-03-01 16:20:00+00:00,182.2331,0.6,13.53,47.84626,-54.09684
2018-03-01 16:30:00+00:00,179.8481,0.68,13.44,47.84626,-54.09684
2018-03-01 16:40:00+00:00,179.6631,0.7,13.44,47.84626,-54.09684
2018-03-01 16:50:00+00:00,177.4248,0.7,13.44,47.84626,-54.09684
2018-03-01 17:00:00+00:00,175.6665,0.7,13.37,47.84626,-54.09684
2018-03-01 17:10:00+00:00,175.8648,0.69,13.21,47.84626,-54.09684
2018-03-01 17:20:00+00:00,176.7047,0.69,13.37,47.84626,-54.09684
2018-03-01 17:30:00+00:00,177.2065,0.7,13.29,47.84626,-54.09684
2018-03-01 17:40:00+00:00,179.2181,0.61,13.29,47.84626,-54.09684
2018-03-01 17:50:00+00:00,180.2899,0.76,13.37,47.84626,-54.09684
2018-03-01 18:00:00+00:00,177.2015,0.8,13.21,47.84626,-54.09684
2018-03-01 18:10:00+00:00,183.5265,0.7,13.13,47.84626,-54.09684
2018-03-01 18:20:00+00:00,191.1581,0.7,13.29,47.84626,-54.09684
2018-03-01 18:30:00+00:00,187.9431,0.73,13.29,47.84626,-54.09684
2018-03-01 18:40:00+00:00,190.2398,0.8,13.29,47.84626,-54.09684
2018-03-01 18:50:00+00:00,197.0782,0.76,13.21,47.84626,-54.09684
2018-03-01 19:00:00+00:00,198.0215,0.8,13.13,47.84626,-54.09684
2018-03-01 19:10:00+00:00,201.1581,0.8,13.05,47.84626,-54.09684
2018-03-01 19:20:00+00:00,209.3881,0.7,13.13,47.84626,-54.09684
2018-03-01 19:30:00+00:00,214.9881,0.7,13.13,47.84626,-54.09684
2018-03-01 19:40:00+00:00,217.5131,0.7,13.13,47.84626,-54.09684
2018-03-01 19:50:00+00:00,228.5114,0.7,13.13,47.84626,-54.09684
2018-03-01 20:00:00+00:00,238.6398,0.7,13.05,47.84626,-54.09684
2018-03-01 20:10:00+00:00,238.6131,0.7,12.97,47.84626,-54.09684
2018-03-01 20:20:00+00:00,241.0531,0.7,13.05,47.84626,-54.09684
2018-03-01 20:30:00+00:00,255.7097,0.7,12.97,47.84626,-54.09684
2018-03-01 20:40:00+00:00,268.1181,0.7,12.97,47.84626,-54.09684
2018-03-01 20:50:00+00:00,270.4148,0.7,12.97,47.84626,-54.09684
2018-03-01 21:00:00+00:00,276.6263,0.7,12.97,47.84626,-54.09684
2018-03-01 21:10:00+00:00,292.278,0.69,12.89,47.84626,-54.09684
2018-03-01 21:20:00+00:00,299.7565,0.69,12.97,47.84626,-54.09684
2018-03-01 21:30:00+00:00,304.913,0.68,12.97,47.84626,-54.09684
2018-03-01 21:40:00+00:00,317.1246,0.63,12.97,47.84626,-54.09684
2018-03-01 21:50:00+00:00,329.0014,0.61,12.97,47.84626,-54.09684
2018-03-01 22:00:00+00:00,332.4665,0.62,12.89,47.84626,-54.09684
2018-03-01 22:10:00+00:00,338.723,0.62,12.81,47.84626,-54.09684
2018-03-01 22:20:00+00:00,347.1713,0.61,12.89,47.84626,-54.09684
2018-03-01 22:30:00+00:00,352.3613,0.64,12.89,47.84626,-54.09684
2018-03-01 22:40:00+00:00,352.0363,0.67,12.97,47.84626,-54.09684
2018-03-01 22:50:00+00:00,353.8646,0.7,12.97,47.84626,-54.09684
2018-03-01 23:00:00+00:00,357.1263,0.7,12.89,47.84626,-54.09684
2018-03-01 23:10:00+00:00,361.7863,0.69,12.81,47.84626,-54.09684
2018-03-01 23:20:00+00:00,359.468,0.7,12.89,47.84626,-54.09684
2018-03-01 23:30:00+00:00,356.6013,0.7,12.89,47.84626,-54.09684
2018-03-01 23:40:00+00:00,354.4514,0.7,12.89,47.84626,-54.09684
2018-03-01 23:50:00+00:00,359.8929,0.7,12.89,47.84626,-54.09684
